Regional Weather Roundup
Issued by NWS

Home | Current Version | Previous Version | Text Only | Print | Product List | Glossary Off
Versions: 1 2 3 4 5 6 7 8 9 10 11 12 13 14 15 16 17 18 19 20 21 22 23 24 25 26 27 28 29 30 31 32 33 34 35 36 37 38 39 40 41 42 43 44 45 46 47 48 49 50

164
ASUS45 KABQ 010601
RWRNM
NEW MEXICO REGIONAL WEATHER ROUNDUP
NATIONAL WEATHER SERVICE ALBUQUERQUE NM
1200 AM MDT WED JUN 01 2016

NOTE: "FAIR" MEANS FEW OR NO CLOUDS BELOW 12,000 FEET AGL WITH NO
       SIGNIFICANT WEATHER OR OBSTRUCTIONS TO VISION.

      THIS PRODUCT IS RELEASED AS TWO VERSIONS.  ONE VERSION NEAR
      THE TOP OF THE HOUR CONTAINING PRELIMINARY DATA FROM ALBUQUERQUE
      AND OTHER STATIONS.  A FINAL VERSION WITH ADDITIONAL DATA IS
      ISSUED ABOUT 10 MINUTES AFTER THE HOUR.

NMZ501-503-504-510>518-010700-
NORTHWEST PLATEAU/NORTHCENTRAL MOUNTAINS

CITY           SKY/WX    TMP DP  RH WIND       PRES   REMARKS
FARMINGTON     FAIR      68  31  25 SE8       29.98S
6HR MIN TEMP:  68; 6HR MAX TEMP:  83;

SANTA FE       FAIR      55  40  56 SE17      30.13R
6HR MIN TEMP:  54; 6HR MAX TEMP:  64;

TAOS           FAIR      54  34  47 E9        30.17R

$$
NMZ402-403-502-505>509-010700-
WESTCENTRAL MOUNTAINS/SOUTHWEST MOUNTAINS

CITY           SKY/WX    TMP DP  RH WIND       PRES   REMARKS
GALLUP         FAIR      62  30  29 SW6       30.08R
6HR MIN TEMP:  62; 6HR MAX TEMP:  77;

GRANTS         FAIR      54  36  51 SE5       30.11F
SILVER CITY      N/A     63  36  36 SE12      30.06S

$$
NMZ407-409-411-412-010700-
SOUTHERN DESERTS

CITY           SKY/WX    TMP DP  RH WIND       PRES   REMARKS
LORDSBURG      FAIR      72  32  23 W3        29.96S
DEMING         MOCLDY    67  44  43 CALM      30.00R
6HR MIN TEMP:  65; 6HR MAX TEMP:  83;

HOLLOMAN AFB   FAIR      65  46  50 N6        29.95F
ALAMOGORDO     FAIR      66  45  45 N5        29.97F
T OR C         FAIR      65  45  48 CALM      30.00F
6HR MIN TEMP:  64; 6HR MAX TEMP:  81; 6HR PCP:  0.01;


$$
NMZ519>523-010700-
CENTRAL VALLEYS/CENTRAL HIGHLANDS

CITY           SKY/WX    TMP DP  RH WIND       PRES   REMARKS
ALBUQUERQUE    FAIR      63  38  39 E22       30.05S
6HR MIN TEMP:  63; 6HR MAX TEMP:  71;

DOUBLE EAGLE   FAIR      54  38  53 N5        30.08F
CLINES CORNERS FAIR      47  44  90 E12       30.17R
6HR MIN TEMP:  47; 6HR MAX TEMP:  53; 6HR PCP:  0.15;

BELEN          FAIR      61  37  41 E7        30.05R
6HR MIN TEMP:  60; 6HR MAX TEMP:  70;

SOCORRO        NOT AVBL

$$
NMZ524>526-539-540-010700-
SOUTHCENTRAL MOUNTAINS

CITY           SKY/WX    TMP DP  RH WIND       PRES   REMARKS
RUIDOSO        NOT AVBL

$$
NMZ527>531-010700-
NORTHEAST HIGHLANDS/NORTHEAST PLAINS

CITY           SKY/WX    TMP DP  RH WIND       PRES   REMARKS
LAS VEGAS      FAIR      46  43  89 N6        30.19R
6HR MIN TEMP:  46; 6HR MAX TEMP:  52;

RATON          CLOUDY    50  45  83 N9        30.19R
6HR MIN TEMP:  47; 6HR MAX TEMP:  56;

CLAYTON        CLOUDY    59  52  77 SE10      30.11S
6HR MIN TEMP:  59; 6HR MAX TEMP:  71;


$$
NMZ532>537-010700-
EASTCENTRAL PLAINS

CITY           SKY/WX    TMP DP  RH WIND       PRES   REMARKS
TUCUMCARI      LGT RAIN  58  53  84 SE9       30.04F
6HR MIN TEMP:  57; 6HR MAX TEMP:  75; 6HR PCP:  0.57;

CANNON AFB     DRIZZLE   56  56 100 N14       30.04F
6HR MIN TEMP:  55; 6HR MAX TEMP:  76; 6HR PCP:  2.15;

CLOVIS AIRPORT CLOUDY    57  54  88 N9        30.06F

$$
NMZ028-029-538-010700-
SOUTHEAST PLAINS

CITY           SKY/WX    TMP DP  RH WIND       PRES   REMARKS
ROSWELL        FAIR      60  51  72 NE8       30.02S
6HR MIN TEMP:  60; 6HR MAX TEMP:  78;

ARTESIA        FAIR      59  57  94 NW13      30.02S
CARLSBAD       FAIR      62  54  74 NW6       29.99R
6HR MIN TEMP:  62; 6HR MAX TEMP:  73; 6HR PCP:  0.01;

HOBBS          FAIR      61  61 100 N7        30.02S


$$




USA.gov is the U.S. government's official web portal to all federal, state and local government web resources and services.